Anderson Regional Airport Anderson US
ICAO: KAND
IATA: AND
Category: Medium
Scheduled Services: No

Elevation: 782 ft
TransAlt. 18000 ft.

Airport Communications:
GREER APP/DEP:118.8
ASOS:120.675
CTAF:123.6
RDO:122.2
UNICOM:122.95

KAND Zoom In..

If you have problems with the map follow the link
https://www.worldairports.se/pages/airport.php?
ICAO=KAND

Runways:

(A) RW 05 length 6002 ft width 149 ft
ILS 111.90 / hdg 51

(B) RW 17 length 4996 ft width 149 ft
---- / hdg 171

(C) RW 23 length 6002 ft width 149 ft
---- / hdg 231

(D) RW 35 length 4996 ft width 149 ft
---- / hdg 351

Location; KAND
Day. 17 / Time. 01.56 Zulu
* Altimeter: 30.10
* Temperature: 06° c. 42.8°f.
* Wind from: 000° Speed 00 kn.
Dewpoint: 03° c.
Visibility: 10 Statute Miles.
Clouds: Clear (automated report).

KAND 170156Z AUTO 00000KT 10SM CLR 06/03 A3010 RMK AO2 SLP195 T00610033


Wind - Calm.

 
 
jpsmedia.com for Web Design worldairports.se 2018   terms of use